| time (UTC) | temp F | wind direction | speed knots | gust knots | rain 1hr in | rain 24hr in | rain mn in | humidity % | barometer mb |
| 20260505030307 | 61 | 196 | 0.9 | 6.1 | 0.00 | 0.00 | 0.00 | 56 | 1011.0 |
| 20260505025809 | 61 | 153 | 2.6 | 6.1 | 0.00 | 0.00 | 0.00 | 56 | 1011.1 |
| 20260505025111 | 61 | 215 | 1.7 | 4.3 | 0.00 | 0.00 | 0.00 | 56 | 1010.9 |
| 20260505024542 | 62 | 132 | 0.9 | 4.3 | 0.00 | 0.00 | 0.00 | 56 | 1011.0 |
| 20260505023933 | 62 | 181 | 1.7 | 4.3 | 0.00 | 0.00 | 0.00 | 55 | 1011.0 |
| 20260505023448 | 62 | 142 | 1.7 | 4.3 | 0.00 | 0.00 | 0.00 | 55 | 1010.9 |
| 20260505022901 | 62 | 133 | 0.9 | 5.2 | 0.00 | 0.00 | 0.00 | 54 | 1011.0 |
| 20260505022159 | 62 | 207 | 0.9 | 5.2 | 0.00 | 0.00 | 0.00 | 54 | 1011.1 |
| 20260505021719 | 62 | 192 | 0.9 | 2.6 | 0.00 | 0.00 | 0.00 | 54 | 1011.0 |
| 20260505021129 | 63 | 159 | 0.0 | 1.7 | 0.00 | 0.00 | 0.00 | 53 | 1011.1 |
| 20260505020537 | 63 | 120 | 0.9 | 1.7 | 0.00 | 0.00 | 0.00 | 52 | 1011.0 |
| 20260505020057 | 63 | 140 | 0.0 | 1.7 | 0.00 | 0.00 | 0.00 | 52 | 1011.0 |
| 20260505015513 | 64 | 150 | 0.0 | 1.7 | 0.00 | 0.00 | 0.00 | 51 | 1010.9 |
| 20260505014918 | 64 | 110 | 0.9 | 1.7 | 0.00 | 0.00 | 0.00 | 49 | 1010.7 |
| 20260505014325 | 65 | 113 | 0.9 | 3.5 | 0.00 | 0.00 | 0.00 | 50 | 1010.6 |
| 20260505013740 | 65 | 185 | 0.9 | 3.5 | 0.00 | 0.00 | 0.00 | 49 | 1010.5 |
| 20260505013258 | 65 | 169 | 0.9 | 4.3 | 0.00 | 0.00 | 0.00 | 49 | 1010.5 |
| 20260505012556 | 65 | 150 | 1.7 | 6.1 | 0.00 | 0.00 | 0.00 | 47 | 1010.3 |
| 20260505011854 | 66 | 190 | 0.9 | 6.1 | 0.00 | 0.00 | 0.00 | 48 | 1010.3 |
| 20260505011313 | 66 | 170 | 2.6 | 6.1 | 0.00 | 0.00 | 0.00 | 47 | 1010.2 |
| 20260505010821 | 66 | 176 | 2.6 | 6.1 | 0.00 | 0.00 | 0.00 | 47 | 1010.2 |
| 20260505010128 | 66 | 221 | 2.6 | 5.2 | 0.00 | 0.00 | 0.00 | 46 | 1010.2 |
| 20260505005426 | 66 | 167 | 1.7 | 7.0 | 0.00 | 0.00 | 0.00 | 46 | 1010.3 |
| 20260505004836 | 66 | 204 | 2.6 | 7.0 | 0.00 | 0.00 | 0.00 | 46 | 1010.2 |
| 20260505004246 | 66 | 186 | 2.6 | 7.0 | 0.00 | 0.00 | 0.00 | 45 | 1010.3 |
| 20260505003807 | 66 | 165 | 2.6 | 7.0 | 0.00 | 0.00 | 0.00 | 45 | 1010.3 |
| 20260505003234 | 67 | 196 | 2.6 | 5.2 | 0.00 | 0.00 | 0.00 | 45 | 1010.3 |
| 20260505002644 | 67 | 141 | 1.7 | 7.0 | 0.00 | 0.00 | 0.00 | 44 | 1010.3 |
| 20260505002053 | 67 | 209 | 2.6 | 7.0 | 0.00 | 0.00 | 0.00 | 44 | 1010.2 |
| 20260505001504 | 67 | 201 | 1.7 | 7.8 | 0.00 | 0.00 | 0.00 | 44 | 1010.2 |
| 20260505001024 | 68 | 161 | 2.6 | 7.8 | 0.00 | 0.00 | 0.00 | 42 | 1010.2 |
| 20260505000432 | 68 | 209 | 1.7 | 7.0 | 0.00 | 0.00 | 0.00 | 43 | 1010.1 |
| 20260504235844 | 68 | 183 | 4.3 | 9.6 | 0.00 | 0.00 | 0.00 | 42 | 1010.1 |
| 20260504235254 | 69 | 152 | 3.5 | 9.6 | 0.00 | 0.00 | 0.00 | 41 | 1010.1 |
| 20260504234702 | 69 | 211 | 3.5 | 7.0 | 0.00 | 0.00 | 0.00 | 42 | 1010.1 |
| 20260504234224 | 69 | 192 | 2.6 | 7.0 | 0.00 | 0.00 | 0.00 | 41 | 1010.1 |
| 20260504233632 | 70 | 211 | 2.6 | 7.0 | 0.00 | 0.00 | 0.00 | 41 | 1010.1 |
| 20260504233154 | 70 | 207 | 2.6 | 10.4 | 0.00 | 0.00 | 0.00 | 40 | 1010.1 |
| 20260504232709 | 70 | 165 | 4.3 | 10.4 | 0.00 | 0.00 | 0.00 | 39 | 1010.1 |
| 20260504232013 | 70 | 182 | 3.5 | 8.7 | 0.00 | 0.00 | 0.00 | 39 | 1010.1 |
| 20260504231545 | 71 | 178 | 4.3 | 9.6 | 0.00 | 0.00 | 0.00 | 38 | 1010.1 |
| 20260504230942 | 71 | 192 | 3.5 | 9.6 | 0.00 | 0.00 | 0.00 | 39 | 1010.2 |
| 20260504230348 | 71 | 207 | 3.5 | 8.7 | 0.00 | 0.00 | 0.00 | 40 | 1010.2 |
| 20260504225801 | 71 | 209 | 4.3 | 9.6 | 0.00 | 0.00 | 0.00 | 38 | 1010.2 |
| 20260504225319 | 72 | 194 | 5.2 | 11.3 | 0.00 | 0.00 | 0.00 | 38 | 1010.2 |
| 20260504224729 | 72 | 204 | 4.3 | 14.8 | 0.00 | 0.00 | 0.00 | 38 | 1010.2 |
| 20260504224245 | 72 | 290 | 6.1 | 13.9 | 0.00 | 0.00 | 0.00 | 37 | 1010.1 |
| 20260504223702 | 72 | 229 | 4.3 | 11.3 | 0.00 | 0.00 | 0.00 | 38 | 1010.2 |
| 20260504223111 | 72 | 184 | 4.3 | 9.6 | 0.00 | 0.00 | 0.00 | 39 | 1010.3 |
| 20260504222631 | 72 | 194 | 5.2 | 9.6 | 0.00 | 0.00 | 0.00 | 37 | 1010.1 |
| 20260504222149 | 72 | 180 | 6.1 | 9.6 | 0.00 | 0.00 | 0.00 | 38 | 1010.1 |
| 20260504221606 | 72 | 212 | 4.3 | 9.6 | 0.00 | 0.00 | 0.00 | 38 | 1010.1 |
| 20260504221114 | 72 | 184 | 4.3 | 13.0 | 0.00 | 0.00 | 0.00 | 37 | 1010.2 |
| 20260504220507 | 72 | 213 | 6.1 | 13.0 | 0.00 | 0.00 | 0.00 | 38 | 1010.2 |
| 20260504220023 | 73 | 162 | 7.0 | 13.0 | 0.00 | 0.00 | 0.00 | 36 | 1010.0 |
| 20260504215606 | 73 | 209 | 6.1 | 8.7 | 0.00 | 0.00 | 0.00 | 38 | 1010.2 |
| 20260504215007 | 73 | 226 | 2.6 | 9.6 | 0.00 | 0.00 | 0.00 | 39 | 1010.1 |